Regional Weather Roundup
Issued by NWS Sioux Falls, SD

Home | Current Version | Previous Version | Graphics & Text | Print | Product List | Glossary On
Versions: 1 2 3 4 5 6 7 8 9 10 11 12 13 14 15 16 17 18 19 20 21 22 23 24 25 26 27 28 29 30 31 32 33 34 35 36 37 38 39 40 41 42 43 44 45 46 47 48 49 50
000
ASUS43 KFSD 300302
RWRFSD

WEATHER ROUNDUP FOR SE SOUTH DAKOTA/SW MINNESOTA/NW IOWA
NATIONAL WEATHER SERVICE SIOUX FALLS SD
1000 PM CDT MON AUG 29 2016

NOTE: "FAIR" INDICATES FEW OR NO CLOUDS BELOW 12,000 FEET WITH NO
SIGNIFICANT WEATHER AND OR OBSTRUCTIONS TO VISIBILITY.


SDZ038>040-050-052>070-300400-
SOUTHEAST SOUTH DAKOTA

CITY           SKY/WX    TMP DP  RH WIND       PRES   REMARKS
CHAMBERLAIN    MOCLDY    75  68  78 SE5       30.15R
HURON          PTCLDY    77  68  73 SE3       30.15R
MADISON        FAIR      70  70 100 S6        30.20R
MITCHELL       PTCLDY    73  66  78 SE7       30.15R
SIOUX FALLS    CLOUDY    75  69  81 CALM      30.20R
WINNER         FAIR      75  63  66 S6        30.16R
YANKTON        CLOUDY    72  66  83 E6        30.17R
$$

MNZ071-072-080-081-089-090-097-098-300400-
SOUTHWEST MINNESOTA

CITY           SKY/WX    TMP DP  RH WIND       PRES   REMARKS
FAIRMONT       MOCLDY    69  67  93 S6        30.19R
JACKSON        CLOUDY    72  68  88 SW5       30.20R
LUVERNE        PTCLDY    68  64  88 CALM      30.20R
MARSHALL       CLEAR     73  70  90 SW7       30.16R
MONTEVIDEO     PTCLDY    75  72  88 CALM      30.15R
REDWOOD FALLS  CLEAR     76  70  82 SW8       30.15R
TRACY          PTCLDY    75  70  85 SW10      30.18R
WINDOM         CLEAR     73  70  88 S3        30.19R
WORTHINGTON    CLOUDY    72  70  93 S5        30.21R
$$

IAZ001>003-012>014-020>022-031-032-NEZ013-014-SDZ071-300400-
NORTHWEST IOWA

CITY           SKY/WX    TMP DP  RH WIND       PRES   REMARKS
CHEROKEE       CLOUDY    73  69  88 S5        30.19R
DENISON        CLOUDY    68  68 100 W7        30.19R
ESTHERVILLE    CLOUDY    68  68 100 S5        30.19R
LE MARS        CLOUDY    73  68  83 S12G20    30.20R
ORANGE CITY    CLOUDY    75  72  88 S6        30.20R
SHELDON        CLOUDY    72  72 100 CALM      30.18R
SIOUX CITY     TSTM      71  67  87 SW7       30.21R
SPENCER        CLOUDY    71  68  90 S3        30.19R
STORM LAKE     CLOUDY    70  68  94 S5        30.20S
$$

ABBREVIATIONS USED IN REMARKS
   TC - TEMPERATURE IN CELSIUS
  WCI - WIND CHILL INDEX
   HX - HEAT INDEX
  VSB - VISIBILITY




USA.gov is the U.S. government's official web portal to all federal, state and local government web resources and services.